Time,TemperatureF,DewpointF,PressureIn,WindDirection,WindDirectionDegrees,WindSpeedMPH,WindSpeedGustMPH,Humidity,HourlyPrecipIn,Conditions,Clouds,dailyrainin,SoftwareType,DateUTC
2013-02-03 00:03:00,18.0,16.0,30.04,WNW,284,0.0,1.0,91,0.00,,,0.00,,2013-02-03 05:03:00,
2013-02-03 00:12:00,18.0,16.0,30.04,WNW,284,0.0,1.0,91,0.00,,,0.00,,2013-02-03 05:12:00,
2013-02-03 00:22:00,18.0,16.0,30.03,WNW,283,1.0,5.0,91,0.00,,,0.00,,2013-02-03 05:22:00,
2013-02-03 00:32:00,18.0,16.0,30.03,WNW,289,0.0,1.0,90,0.00,,,0.00,,2013-02-03 05:32:00,
2013-02-03 00:42:00,18.0,16.0,30.03,WNW,289,0.0,1.0,90,0.00,,,0.00,,2013-02-03 05:42:00,
2013-02-03 00:52:00,18.0,15.0,30.03,WNW,289,0.0,1.0,89,0.00,,,0.00,,2013-02-03 05:52:00,
2013-02-03 01:02:00,17.0,14.0,30.03,WNW,289,0.0,0.0,89,0.00,,,0.00,,2013-02-03 06:02:00,
2013-02-03 01:11:00,17.0,14.0,30.03,WNW,289,0.0,0.0,89,0.00,,,0.00,,2013-02-03 06:11:00,
2013-02-03 01:21:00,17.0,14.0,30.03,WNW,289,0.0,1.0,89,0.00,,,0.00,,2013-02-03 06:21:00,
2013-02-03 01:32:00,17.0,14.0,30.03,WNW,289,0.0,1.0,89,0.00,,,0.00,,2013-02-03 06:32:00,
2013-02-03 01:42:00,17.0,14.0,30.03,WNW,289,0.0,1.0,89,0.00,,,0.00,,2013-02-03 06:42:00,
2013-02-03 01:52:00,17.0,15.0,30.03,NE,49,0.0,3.0,90,0.00,,,0.00,,2013-02-03 06:52:00,
2013-02-03 02:02:00,17.0,15.0,30.02,NE,55,0.0,0.0,90,0.00,,,0.00,,2013-02-03 07:02:00,
2013-02-03 02:11:00,17.0,15.0,30.02,NE,55,0.0,0.0,90,0.00,,,0.00,,2013-02-03 07:11:00,
2013-02-03 02:21:00,17.0,15.0,30.01,NE,55,0.0,1.0,90,0.00,,,0.00,,2013-02-03 07:21:00,
2013-02-03 02:32:00,17.0,14.0,30.01,East,90,0.0,6.0,89,0.00,,,0.00,,2013-02-03 07:32:00,
2013-02-03 02:42:00,17.0,14.0,30.01,East,90,0.0,6.0,89,0.00,,,0.00,,2013-02-03 07:42:00,
2013-02-03 02:52:00,17.0,14.0,30.01,East,90,0.0,1.0,89,0.00,,,0.00,,2013-02-03 07:52:00,
2013-02-03 03:02:00,17.0,15.0,30.00,ENE,67,0.0,2.0,90,0.00,,,0.00,,2013-02-03 08:02:00,
2013-02-03 03:11:00,17.0,15.0,30.00,ENE,67,0.0,2.0,90,0.00,,,0.00,,2013-02-03 08:11:00,
2013-02-03 03:22:00,17.0,15.0,30.00,ENE,67,0.0,0.0,90,0.00,,,0.00,,2013-02-03 08:22:00,
2013-02-03 03:32:00,17.0,14.0,30.00,ENE,67,0.0,1.0,89,0.00,,,0.00,,2013-02-03 08:32:00,
2013-02-03 03:42:00,17.0,14.0,30.00,ENE,67,0.0,1.0,89,0.00,,,0.00,,2013-02-03 08:42:00,
2013-02-03 03:52:00,17.0,14.0,30.00,ENE,67,0.0,1.0,89,0.00,,,0.00,,2013-02-03 08:52:00,
2013-02-03 04:03:00,16.0,14.0,29.99,ENE,63,0.0,1.0,90,0.00,,,0.00,,2013-02-03 09:03:00,
2013-02-03 04:11:00,16.0,14.0,29.99,ENE,63,0.0,1.0,90,0.00,,,0.00,,2013-02-03 09:11:00,
2013-02-03 04:22:00,15.0,13.0,29.98,ENE,63,0.0,1.0,90,0.00,,,0.00,,2013-02-03 09:22:00,
2013-02-03 04:32:00,15.0,13.0,29.98,WNW,290,0.0,1.0,91,0.00,,,0.00,,2013-02-03 09:32:00,
2013-02-03 04:42:00,15.0,13.0,29.98,WNW,290,0.0,1.0,91,0.00,,,0.00,,2013-02-03 09:42:00,
2013-02-03 04:52:00,15.0,13.0,29.97,WNW,290,0.0,1.0,91,0.00,,,0.00,,2013-02-03 09:52:00,
2013-02-03 05:01:00,15.0,13.0,29.97,WNW,290,0.0,1.0,91,0.00,,,0.00,,2013-02-03 10:01:00,
2013-02-03 05:11:00,15.0,13.0,29.97,WNW,290,0.0,1.0,91,0.00,,,0.00,,2013-02-03 10:11:00,
2013-02-03 05:21:00,15.0,13.0,29.97,WNW,290,0.0,1.0,91,0.00,,,0.00,,2013-02-03 10:21:00,
2013-02-03 05:32:00,15.0,13.0,29.96,WNW,290,0.0,0.0,91,0.00,,,0.00,,2013-02-03 10:32:00,
2013-02-03 05:42:00,15.0,13.0,29.96,WNW,290,0.0,0.0,91,0.00,,,0.00,,2013-02-03 10:42:00,
2013-02-03 05:52:00,15.0,13.0,29.96,WNW,290,0.0,1.0,91,0.00,,,0.00,,2013-02-03 10:52:00,
2013-02-03 06:02:00,15.0,13.0,29.96,ENE,78,0.0,1.0,91,0.00,,,0.00,,2013-02-03 11:02:00,
2013-02-03 06:11:00,15.0,13.0,29.96,ENE,78,0.0,1.0,91,0.00,,,0.00,,2013-02-03 11:11:00,
2013-02-03 06:22:00,15.0,13.0,29.96,ENE,78,0.0,0.0,91,0.00,,,0.00,,2013-02-03 11:22:00,
2013-02-03 06:32:00,15.0,13.0,29.96,ENE,78,0.0,0.0,91,0.00,,,0.00,,2013-02-03 11:32:00,
2013-02-03 06:42:00,15.0,13.0,29.96,ENE,78,0.0,0.0,91,0.00,,,0.00,,2013-02-03 11:42:00,
2013-02-03 06:52:00,15.0,13.0,29.96,ENE,78,0.0,1.0,91,0.00,,,0.00,,2013-02-03 11:52:00,
2013-02-03 07:02:00,15.0,13.0,29.96,West,279,0.0,2.0,90,0.00,,,0.00,,2013-02-03 12:02:00,
2013-02-03 07:12:00,15.0,13.0,29.96,West,279,0.0,2.0,90,0.00,,,0.00,,2013-02-03 12:12:00,
2013-02-03 07:22:00,15.0,13.0,29.96,WNW,282,0.0,0.0,90,0.00,,,0.00,,2013-02-03 12:22:00,
2013-02-03 07:32:00,15.0,13.0,29.96,WNW,282,0.0,0.0,90,0.00,,,0.00,,2013-02-03 12:32:00,
2013-02-03 07:42:00,15.0,13.0,29.96,WNW,282,0.0,0.0,90,0.00,,,0.00,,2013-02-03 12:42:00,
2013-02-03 07:53:00,15.0,13.0,29.96,WNW,282,0.0,3.0,90,0.00,,,0.00,,2013-02-03 12:53:00,
2013-02-03 08:03:00,15.0,13.0,29.96,WNW,282,0.0,1.0,91,0.00,,,0.00,,2013-02-03 13:03:00,
2013-02-03 08:11:00,15.0,13.0,29.96,WNW,282,0.0,1.0,91,0.00,,,0.00,,2013-02-03 13:11:00,
2013-02-03 08:22:00,15.0,13.0,29.96,WNW,282,0.0,1.0,91,0.00,,,0.00,,2013-02-03 13:22:00,
2013-02-03 08:32:00,15.0,13.0,29.96,WNW,282,0.0,0.0,91,0.00,,,0.00,,2013-02-03 13:32:00,
2013-02-03 08:42:00,15.0,13.0,29.96,WNW,282,0.0,0.0,91,0.00,,,0.00,,2013-02-03 13:42:00,
2013-02-03 08:52:00,15.0,13.0,29.96,WNW,282,0.0,1.0,91,0.00,,,0.00,,2013-02-03 13:52:00,
2013-02-03 09:03:00,15.0,13.0,29.97,WNW,284,1.0,7.0,91,0.00,,,0.00,,2013-02-03 14:03:00,
2013-02-03 09:12:00,15.0,13.0,29.97,WNW,284,1.0,7.0,91,0.00,,,0.00,,2013-02-03 14:12:00,
2013-02-03 09:22:00,15.0,13.0,29.98,WNW,284,0.0,2.0,91,0.00,,,0.00,,2013-02-03 14:22:00,
2013-02-03 09:32:00,16.0,14.0,29.98,WNW,284,0.0,2.0,91,0.00,,,0.00,,2013-02-03 14:32:00,
2013-02-03 09:42:00,16.0,14.0,29.98,WNW,284,0.0,2.0,91,0.00,,,0.00,,2013-02-03 14:42:00,
2013-02-03 09:52:00,17.0,15.0,29.98,SW,224,1.0,4.0,91,0.00,,,0.00,,2013-02-03 14:52:00,
2013-02-03 10:03:00,17.0,15.0,29.97,WSW,246,2.0,6.0,90,0.00,,,0.00,,2013-02-03 15:03:00,
2013-02-03 10:11:00,17.0,15.0,29.97,WSW,246,2.0,6.0,90,0.00,,,0.00,,2013-02-03 15:11:00,
2013-02-03 10:22:00,17.0,14.0,29.97,SW,224,2.0,6.0,89,0.00,,,0.00,,2013-02-03 15:22:00,
2013-02-03 10:33:00,17.0,14.0,29.97,WSW,257,2.0,7.0,89,0.00,,,0.00,,2013-02-03 15:33:00,
2013-02-03 10:42:00,17.0,14.0,29.97,WSW,257,2.0,7.0,89,0.00,,,0.00,,2013-02-03 15:42:00,
2013-02-03 10:52:00,17.0,14.0,29.98,West,267,1.0,8.0,88,0.00,,,0.00,,2013-02-03 15:52:00,
2013-02-03 11:03:00,17.0,14.0,29.98,WNW,284,2.0,8.0,88,0.00,,,0.00,,2013-02-03 16:03:00,
2013-02-03 11:11:00,17.0,14.0,29.98,WNW,284,2.0,8.0,88,0.00,,,0.00,,2013-02-03 16:11:00,
2013-02-03 11:22:00,17.0,14.0,29.97,West,273,3.0,7.0,87,0.00,,,0.00,,2013-02-03 16:22:00,
2013-02-03 11:33:00,18.0,15.0,29.98,WSW,238,3.0,9.0,87,0.00,,,0.00,,2013-02-03 16:33:00,
2013-02-03 11:42:00,18.0,15.0,29.98,WSW,238,3.0,9.0,87,0.00,,,0.00,,2013-02-03 16:42:00,
2013-02-03 11:52:00,18.0,14.0,29.97,West,273,3.0,9.0,83,0.00,,,0.00,,2013-02-03 16:52:00,
2013-02-03 12:02:00,18.0,14.0,29.98,West,278,3.0,12.0,83,0.00,,,0.00,,2013-02-03 17:02:00,
2013-02-03 12:11:00,18.0,14.0,29.98,West,278,3.0,12.0,83,0.00,,,0.00,,2013-02-03 17:11:00,
2013-02-03 12:22:00,18.0,13.0,29.97,WNW,283,5.0,9.0,80,0.00,,,0.00,,2013-02-03 17:22:00,
2013-02-03 12:32:00,18.0,13.0,29.97,West,272,6.0,11.0,81,0.00,,,0.00,,2013-02-03 17:32:00,
2013-02-03 12:42:00,18.0,13.0,29.97,West,272,6.0,11.0,81,0.00,,,0.00,,2013-02-03 17:42:00,
2013-02-03 12:52:00,18.0,13.0,29.96,WNW,287,8.0,11.0,80,0.00,,,0.00,,2013-02-03 17:52:00,
2013-02-03 13:03:00,18.0,13.0,29.97,West,281,8.0,13.0,80,0.00,,,0.00,,2013-02-03 18:03:00,
2013-02-03 13:12:00,18.0,13.0,29.97,West,281,8.0,13.0,80,0.00,,,0.00,,2013-02-03 18:12:00,
2013-02-03 13:23:00,18.0,13.0,29.97,WNW,289,5.0,12.0,81,0.00,,,0.00,,2013-02-03 18:23:00,
2013-02-03 13:33:00,18.0,13.0,29.97,West,265,6.0,14.0,81,0.00,,,0.00,,2013-02-03 18:33:00,
2013-02-03 13:42:00,18.0,13.0,29.97,West,265,6.0,14.0,81,0.00,,,0.00,,2013-02-03 18:42:00,
2013-02-03 13:52:00,19.0,14.0,29.97,WNW,282,7.0,12.0,80,0.00,,,0.00,,2013-02-03 18:52:00,
2013-02-03 14:02:00,19.0,14.0,29.97,WNW,288,10.0,15.0,80,0.00,,,0.00,,2013-02-03 19:02:00,
2013-02-03 14:11:00,19.0,14.0,29.97,WNW,288,10.0,15.0,80,0.00,,,0.00,,2013-02-03 19:11:00,
2013-02-03 14:22:00,19.0,14.0,29.97,WSW,255,3.0,10.0,80,0.00,,,0.00,,2013-02-03 19:22:00,
2013-02-03 14:32:00,20.0,15.0,29.97,WSW,248,4.0,10.0,80,0.00,,,0.00,,2013-02-03 19:32:00,
2013-02-03 14:42:00,20.0,15.0,29.97,WSW,248,4.0,10.0,80,0.00,,,0.00,,2013-02-03 19:42:00,
2013-02-03 14:52:00,20.0,15.0,29.97,West,275,3.0,10.0,79,0.00,,,0.00,,2013-02-03 19:52:00,
2013-02-03 15:02:00,20.0,15.0,29.97,WSW,240,3.0,9.0,79,0.00,,,0.00,,2013-02-03 20:02:00,
2013-02-03 15:12:00,20.0,15.0,29.97,WSW,240,3.0,9.0,79,0.00,,,0.00,,2013-02-03 20:12:00,
2013-02-03 15:22:00,20.0,15.0,29.98,WNW,290,4.0,12.0,79,0.00,,,0.00,,2013-02-03 20:22:00,
2013-02-03 15:33:00,21.0,15.0,29.98,WSW,256,6.0,15.0,78,0.00,,,0.00,,2013-02-03 20:33:00,
2013-02-03 15:42:00,21.0,15.0,29.98,WSW,256,6.0,15.0,78,0.00,,,0.00,,2013-02-03 20:42:00,
2013-02-03 15:52:00,21.0,16.0,29.99,West,259,5.0,12.0,79,0.00,,,0.00,,2013-02-03 20:52:00,
2013-02-03 16:03:00,21.0,16.0,29.99,West,277,4.0,10.0,79,0.00,,,0.00,,2013-02-03 21:03:00,
2013-02-03 16:11:00,21.0,16.0,29.99,West,277,4.0,10.0,79,0.00,,,0.00,,2013-02-03 21:11:00,
2013-02-03 16:21:00,21.0,16.0,30.00,West,263,5.0,11.0,79,0.00,,,0.00,,2013-02-03 21:21:00,
2013-02-03 16:32:00,21.0,16.0,30.01,WSW,252,5.0,11.0,79,0.00,,,0.00,,2013-02-03 21:32:00,
2013-02-03 16:42:00,21.0,16.0,30.01,WSW,252,5.0,11.0,79,0.00,,,0.00,,2013-02-03 21:42:00,
2013-02-03 16:52:00,22.0,17.0,30.01,West,259,4.0,9.0,80,0.00,,,0.00,,2013-02-03 21:52:00,
2013-02-03 17:02:00,21.0,16.0,30.01,WNW,301,4.0,12.0,81,0.00,,,0.00,,2013-02-03 22:02:00,
2013-02-03 17:11:00,21.0,16.0,30.01,WNW,301,4.0,12.0,81,0.00,,,0.00,,2013-02-03 22:11:00,
2013-02-03 17:21:00,21.0,16.0,30.02,WNW,288,4.0,9.0,81,0.00,,,0.00,,2013-02-03 22:21:00,
2013-02-03 17:32:00,21.0,16.0,30.02,West,261,4.0,12.0,81,0.00,,,0.00,,2013-02-03 22:32:00,
2013-02-03 17:42:00,21.0,16.0,30.02,West,261,4.0,12.0,81,0.00,,,0.00,,2013-02-03 22:42:00,
2013-02-03 17:52:00,20.0,16.0,30.02,West,263,3.0,10.0,84,0.00,,,0.00,,2013-02-03 22:52:00,
2013-02-03 18:01:00,20.0,16.0,30.03,WSW,246,3.0,9.0,84,0.00,,,0.00,,2013-02-03 23:01:00,
2013-02-03 18:12:00,20.0,16.0,30.03,WSW,246,3.0,9.0,84,0.00,,,0.00,,2013-02-03 23:12:00,
2013-02-03 18:22:00,20.0,16.0,30.03,West,265,3.0,9.0,83,0.00,,,0.00,,2013-02-03 23:22:00,
2013-02-03 18:32:00,19.0,15.0,30.04,WNW,286,3.0,8.0,84,0.00,,,0.00,,2013-02-03 23:32:00,
2013-02-03 18:42:00,19.0,15.0,30.04,WNW,286,3.0,8.0,84,0.00,,,0.00,,2013-02-03 23:42:00,
2013-02-03 18:52:00,18.0,14.0,30.04,WNW,288,3.0,7.0,84,0.00,,,0.00,,2013-02-03 23:52:00,
2013-02-03 19:02:00,18.0,14.0,30.05,WNW,291,2.0,6.0,85,0.00,,,0.00,,2013-02-04 00:02:00,
2013-02-03 19:11:00,18.0,14.0,30.05,WNW,291,2.0,6.0,85,0.00,,,0.00,,2013-02-04 00:11:00,
2013-02-03 19:22:00,17.0,13.0,30.05,West,264,1.0,7.0,85,0.00,,,0.00,,2013-02-04 00:22:00,
2013-02-03 19:32:00,17.0,13.0,30.06,West,263,1.0,5.0,85,0.00,,,0.00,,2013-02-04 00:32:00,
2013-02-03 19:42:00,17.0,13.0,30.06,West,263,1.0,5.0,85,0.00,,,0.00,,2013-02-04 00:42:00,
2013-02-03 19:52:00,17.0,14.0,30.06,West,275,1.0,6.0,86,0.00,,,0.00,,2013-02-04 00:52:00,
2013-02-03 20:01:00,17.0,14.0,30.07,WSW,252,1.0,7.0,86,0.00,,,0.00,,2013-02-04 01:01:00,
2013-02-03 20:11:00,17.0,14.0,30.07,WSW,252,1.0,7.0,86,0.00,,,0.00,,2013-02-04 01:11:00,
2013-02-03 20:21:00,18.0,15.0,30.07,WSW,250,1.0,5.0,87,0.00,,,0.00,,2013-02-04 01:21:00,
2013-02-03 20:32:00,18.0,15.0,30.07,West,261,1.0,5.0,88,0.00,,,0.00,,2013-02-04 01:32:00,
2013-02-03 20:42:00,18.0,15.0,30.07,West,261,1.0,5.0,88,0.00,,,0.00,,2013-02-04 01:42:00,
2013-02-03 20:52:00,19.0,16.0,30.07,WNW,292,1.0,6.0,88,0.00,,,0.00,,2013-02-04 01:52:00,
2013-02-03 21:02:00,19.0,16.0,30.07,WNW,292,1.0,6.0,88,0.00,,,0.00,,2013-02-04 02:02:00,
2013-02-03 21:11:00,19.0,16.0,30.07,WNW,292,1.0,6.0,88,0.00,,,0.00,,2013-02-04 02:11:00,
2013-02-03 21:21:00,19.0,16.0,30.08,WNW,283,2.0,7.0,86,0.00,,,0.00,,2013-02-04 02:21:00,
2013-02-03 21:32:00,19.0,16.0,30.08,WSW,247,3.0,7.0,86,0.00,,,0.00,,2013-02-04 02:32:00,
2013-02-03 21:42:00,19.0,16.0,30.08,WSW,247,3.0,7.0,86,0.00,,,0.00,,2013-02-04 02:42:00,
2013-02-03 21:52:00,19.0,15.0,30.08,West,267,1.0,8.0,85,0.00,,,0.00,,2013-02-04 02:52:00,
2013-02-03 22:02:00,19.0,15.0,30.09,WSW,252,0.0,4.0,85,0.00,,,0.00,,2013-02-04 03:02:00,
2013-02-03 22:11:00,19.0,15.0,30.09,WSW,252,0.0,4.0,85,0.00,,,0.00,,2013-02-04 03:11:00,
2013-02-03 22:21:00,18.0,14.0,30.08,WSW,247,1.0,6.0,84,0.00,,,0.00,,2013-02-04 03:21:00,
2013-02-03 22:32:00,17.0,13.0,30.09,WNW,292,1.0,8.0,84,0.00,,,0.00,,2013-02-04 03:32:00,
2013-02-03 22:42:00,17.0,13.0,30.09,WNW,292,1.0,8.0,84,0.00,,,0.00,,2013-02-04 03:42:00,
2013-02-03 22:52:00,17.0,13.0,30.09,WNW,285,2.0,7.0,85,0.00,,,0.00,,2013-02-04 03:52:00,
2013-02-03 23:01:00,16.0,13.0,30.08,SSW,206,2.0,6.0,86,0.00,,,0.00,,2013-02-04 04:01:00,
2013-02-03 23:11:00,16.0,13.0,30.08,SSW,206,2.0,6.0,86,0.00,,,0.00,,2013-02-04 04:11:00,
2013-02-03 23:21:00,16.0,13.0,30.08,SSW,206,2.0,6.0,86,0.00,,,0.00,,2013-02-04 04:21:00,
2013-02-03 23:32:00,17.0,14.0,30.09,SW,236,1.0,6.0,86,0.00,,,0.00,,2013-02-04 04:32:00,
2013-02-03 23:42:00,17.0,14.0,30.09,SW,236,1.0,6.0,86,0.00,,,0.00,,2013-02-04 04:42:00,
2013-02-03 23:52:00,17.0,13.0,30.09,West,276,1.0,4.0,85,0.00,,,0.00,,2013-02-04 04:52:00,